This is the latest recevied weather packets stored in our database for station/object KD5FHA. If no packets are shown the sender has not sent any weather packets the latest 1 day(s).
| Time | Temp. | Humidity | Pressure | Rain* | Wind** | Luminosity | Snow |
|---|---|---|---|---|---|---|---|
| 1778040506 | 21.11° C | 71% | 1009.8 hPa | 0 mm | 0.89 m/s, 24° | 0 W/m² | - |
| 1778040203 | 21.11° C | 70% | 1009.6 hPa | 0 mm | 2.24 m/s, 26° | 0 W/m² | - |
| 1778039899 | 21.11° C | 69% | 1009.5 hPa | 0 mm | 1.34 m/s, 26° | 0 W/m² | - |
| 1778039597 | 21.11° C | 69% | 1009.5 hPa | 0 mm | 0.89 m/s, 36° | 0 W/m² | - |
| 1778039294 | 21.67° C | 68% | 1009.3 hPa | 0 mm | 0.89 m/s, 4° | 0 W/m² | - |
| 1778038991 | 21.67° C | 68% | 1009.3 hPa | 0 mm | 2.24 m/s, 8° | 0 W/m² | - |
| 1778038688 | 21.67° C | 68% | 1009.2 hPa | 0 mm | 0.89 m/s, 67° | 0 W/m² | - |
| 1778038385 | 21.67° C | 68% | 1008.8 hPa | 0 mm | 2.24 m/s, 28° | 0 W/m² | - |
| 1778038082 | 21.67° C | 68% | 1008.8 hPa | 0 mm | 3.13 m/s, 29° | 0 W/m² | - |
| 1778037779 | 21.67° C | 69% | 1008.6 hPa | 0 mm | 1.79 m/s, 32° | 0 W/m² | - |
| 1778037475 | 21.67° C | 69% | 1008.6 hPa | 0 mm | 2.24 m/s, 37° | 0 W/m² | - |
| 1778037173 | 22.22° C | 69% | 1008.6 hPa | 0 mm | 3.13 m/s, 23° | 0 W/m² | - |
| 1778036871 | 22.22° C | 69% | 1008.4 hPa | 0 mm | 0.45 m/s, 88° | 0 W/m² | - |
| 1778036568 | 22.22° C | 68% | 1008.5 hPa | 0 mm | 1.34 m/s, 45° | 0 W/m² | - |
| 1778036265 | 22.78° C | 68% | 1008.8 hPa | 0 mm | 1.79 m/s, 35° | 0 W/m² | - |
| 1778035961 | 22.78° C | 67% | 1008.6 hPa | 0 mm | 1.34 m/s, 22° | 0 W/m² | - |
| 1778035658 | 22.78° C | 67% | 1008.3 hPa | 0 mm | 0.89 m/s, 288° | 0 W/m² | - |
| 1778035355 | 22.78° C | 67% | 1008.3 hPa | 0 mm | 2.68 m/s, 20° | 0 W/m² | - |
| 1778035051 | 23.33° C | 66% | 1008 hPa | 0 mm | 1.79 m/s, 2° | 0 W/m² | - |
| 1778034748 | 23.89° C | 66% | 1008 hPa | 0 mm | 2.68 m/s, 29° | 0 W/m² | - |
| 1778034445 | 23.89° C | 66% | 1007.8 hPa | 0 mm | 2.24 m/s, 41° | 0 W/m² | - |
| 1778034143 | 23.89° C | 66% | 1007.8 hPa | 0 mm | 4.47 m/s, 14° | 0 W/m² | - |
| 1778033841 | 24.44° C | 66% | 1007.6 hPa | 0 mm | 1.79 m/s, 27° | 0 W/m² | - |
| 1778033537 | 24.44° C | 66% | 1007.3 hPa | 0 mm | 1.79 m/s, 51° | 0 W/m² | - |
| 1778033234 | 25° C | 65% | 1007.1 hPa | 0 mm | 2.68 m/s, 15° | 0 W/m² | - |
* Rain latest hour (hover to see other rain measurements)
** Current wind speed in m/s (hover to see current wind gust speed)